When you browse on this site, cookies collect data to enhance your experience and personalize the content and advertising you see.
Visit our Privacy Policy to learn more. By continuing to use the site, you agree to this use of cookies and data.
  • In Lithuania
  • List of Countries
  • For 7 days
  • Water Temperature
  • Satellite Maps
  • Weather Map
  • Weather Widgets
  • user-avatar
    Login

    Hourly Weather Ondjiwa

    Today, 20 February, Wednesday

    Time Temperature Precipitation Wind Pressure Humidity
    00:00 +28°C° 0 mm 2 mps 666 mmHg 38%
    01:00 +25°C° 0 mm 3 mps 666 mmHg 40%
    02:00 +24°C° 0 mm 3 mps 666 mmHg 43%
    03:00 +22°C° 0 mm 3 mps 666 mmHg 45%
    04:00 +21°C° 0 mm 2 mps 666 mmHg 47%
    05:00 +21°C° 0 mm 2 mps 666 mmHg 48%
    06:00 +23°C° 0 mm 2 mps 666 mmHg 49%
    07:00 +23°C° 0 mm 2 mps 667 mmHg 50%
    08:00 +26°C° 0 mm 3 mps 668 mmHg 43%
    09:00 +29°C° 0 mm 3 mps 669 mmHg 36%
    10:00 +33°C° 0 mm 4 mps 669 mmHg 29%
    11:00 +34°C° 0 mm 4 mps 669 mmHg 26%
    12:00 +36°C° 0 mm 4 mps 669 mmHg 22%
    13:00 +37°C° 0 mm 4 mps 668 mmHg 19%
    14:00 +37°C° 0 mm 4 mps 668 mmHg 19%
    15:00 +37°C° 0 mm 4 mps 667 mmHg 19%
    16:00 +37°C° 0 mm 4 mps 667 mmHg 19%
    17:00 +35°C° 0 mm 3 mps 666 mmHg 23%
    18:00 +31°C° 0 mm 2 mps 666 mmHg 26%
    19:00 +29°C° 0 mm 1 mps 666 mmHg 29%
    20:00 +28°C° 0 mm 2 mps 666 mmHg 31%
    21:00 +27°C° 0 mm 2 mps 667 mmHg 32%
    22:00 +27°C° 0 mm 2 mps 667 mmHg 34%
    23:00 +26°C° 0 mm 2 mps 667 mmHg 35%

    Tomorrow, 21 February, Thursday

    Time Temperature Precipitation Wind Pressure Humidity
    00:00 +25°C° 0 mm 3 mps 667 mmHg 36%
    01:00 +24°C° 0 mm 3 mps 667 mmHg 38%
    02:00 +22°C° 0 mm 3 mps 667 mmHg 38%
    03:00 +23°C° 0 mm 2 mps 667 mmHg 39%
    04:00 +21°C° 0 mm 2 mps 667 mmHg 40%
    05:00 +21°C° 0 mm 2 mps 667 mmHg 41%
    06:00 +22°C° 0 mm 3 mps 668 mmHg 42%
    07:00 +22°C° 0 mm 3 mps 668 mmHg 43%
    08:00 +26°C° 0 mm 3 mps 669 mmHg 36%
    09:00 +29°C° 0 mm 4 mps 670 mmHg 29%
    10:00 +34°C° 0 mm 5 mps 671 mmHg 22%
    11:00 +35°C° 0 mm 5 mps 670 mmHg 20%
    12:00 +36°C° 0 mm 5 mps 670 mmHg 17%
    13:00 +39°C° 0 mm 5 mps 670 mmHg 14%
    14:00 +37°C° 0 mm 4 mps 669 mmHg 15%
    15:00 +37°C° 0 mm 4 mps 668 mmHg 15%
    16:00 +37°C° 0 mm 4 mps 667 mmHg 16%
    17:00 +35°C° 0 mm 3 mps 667 mmHg 19%
    18:00 +31°C° 0 mm 2 mps 667 mmHg 23%
    19:00 +29°C° 0 mm 2 mps 667 mmHg 27%
    20:00 +28°C° 0 mm 2 mps 667 mmHg 30%
    21:00 +27°C° 0 mm 2 mps 668 mmHg 32%
    22:00 +26°C° 0 mm 2 mps 668 mmHg 35%
    23:00 +26°C° 0 mm 2 mps 668 mmHg 37%

    Day after tomorrow, 22 February, Friday

    Time Temperature Precipitation Wind Pressure Humidity
    00:00 +25°C° 0 mm 2 mps 668 mmHg 39%
    01:00 +24°C° 0 mm 2 mps 668 mmHg 42%
    02:00 +23°C° 0 mm 2 mps 667 mmHg 48%
    03:00 +22°C° 0 mm 1 mps 667 mmHg 54%
    04:00 +21°C° 0 mm 1 mps 667 mmHg 59%
    05:00 +22°C° 0 mm 1 mps 667 mmHg 61%
    06:00 +22°C° 0 mm 1 mps 668 mmHg 62%
    07:00 +21°C° 0 mm 2 mps 668 mmHg 64%
    08:00 +26°C° 0 mm 2 mps 669 mmHg 54%
    09:00 +29°C° 0 mm 2 mps 670 mmHg 44%
    10:00 +32°C° 0 mm 2 mps 671 mmHg 35%
    11:00 +35°C° 0 mm 2 mps 670 mmHg 30%
    12:00 +36°C° 0 mm 3 mps 670 mmHg 24%
    13:00 +37°C° 0 mm 4 mps 669 mmHg 19%
    14:00 +37°C° 0 mm 3 mps 669 mmHg 20%
    15:00 +36°C° 0 mm 3 mps 668 mmHg 21%
    16:00 +36°C° 0 mm 3 mps 667 mmHg 22%
    17:00 +34°C° 0 mm 2 mps 667 mmHg 26%
    18:00 +31°C° 0 mm 2 mps 666 mmHg 29%
    19:00 +29°C° 0 mm 1 mps 666 mmHg 32%
    20:00 +28°C° 0 mm 1 mps 667 mmHg 34%
    21:00 +27°C° 0 mm 2 mps 667 mmHg 36%
    22:00 +26°C° 0 mm 2 mps 667 mmHg 38%
    23:00 +26°C° 0 mm 2 mps 667 mmHg 39%

    23 February, Saturday

    Time Temperature Precipitation Wind Pressure Humidity
    00:00 +26°C° 0 mm 2 mps 667 mmHg 41%
    01:00 +26°C° 0 mm 2 mps 667 mmHg 42%
    02:00 +26°C° 0 mm 2 mps 666 mmHg 46%
    03:00 +25°C° 0 mm 2 mps 666 mmHg 50%
    04:00 +25°C° 0 mm 2 mps 666 mmHg 53%
    05:00 +25°C° 0 mm 2 mps 666 mmHg 56%
    06:00 +24°C° 0 mm 2 mps 667 mmHg 58%
    07:00 +24°C° 0 mm 2 mps 667 mmHg 61%
    08:00 +27°C° 0 mm 2 mps 668 mmHg 52%
    09:00 +31°C° 0 mm 1 mps 669 mmHg 42%
    10:00 +34°C° 0 mm 1 mps 670 mmHg 33%
    11:00 +35°C° 0 mm 1 mps 669 mmHg 28%
    12:00 +37°C° 0 mm 2 mps 668 mmHg 22%
    13:00 +39°C° 0 mm 3 mps 668 mmHg 17%
    14:00 +40°C° 0 mm 4 mps 667 mmHg 17%
    15:00 +40°C° 0 mm 4 mps 666 mmHg 16%
    16:00 +40°C° 0 mm 4 mps 666 mmHg 16%
    17:00 +36°C° 0 mm 4 mps 665 mmHg 19%
    18:00 +34°C° 0 mm 3 mps 665 mmHg 23%
    19:00 +31°C° 0 mm 2 mps 665 mmHg 26%
    20:00 +31°C° 0 mm 2 mps 666 mmHg 26%
    21:00 +31°C° 0 mm 1 mps 666 mmHg 26%
    22:00 +30°C° 0 mm 1 mps 667 mmHg 27%
    23:00 +30°C° 0 mm 1 mps 666 mmHg 28%

    24 February, Sunday

    Time Temperature Precipitation Wind Pressure Humidity
    00:00 +29°C° 0 mm 2 mps 666 mmHg 29%
    01:00 +28°C° 0 mm 2 mps 666 mmHg 31%
    02:00 +28°C° 0 mm 2 mps 666 mmHg 34%
    03:00 +27°C° 0 mm 2 mps 665 mmHg 37%
    04:00 +26°C° 0 mm 1 mps 665 mmHg 40%
    05:00 +26°C° 0 mm 1 mps 665 mmHg 41%
    06:00 +26°C° 0 mm 2 mps 666 mmHg 43%
    07:00 +25°C° 0 mm 2 mps 666 mmHg 45%
    08:00 +28°C° 0 mm 2 mps 667 mmHg 39%
    09:00 +31°C° 0 mm 2 mps 667 mmHg 33%
    10:00 +35°C° 0 mm 2 mps 668 mmHg 27%
    11:00 +36°C° 0 mm 3 mps 668 mmHg 24%
    12:00 +38°C° 0 mm 4 mps 667 mmHg 21%
    13:00 +40°C° 0 mm 4 mps 667 mmHg 18%
    14:00 +38°C° 0 mm 4 mps 666 mmHg 20%
    15:00 +37°C° 0 mm 3 mps 666 mmHg 22%
    16:00 +36°C° 0 mm 3 mps 665 mmHg 25%
    17:00 +34°C° 0 mm 3 mps 665 mmHg 27%
    18:00 +31°C° 0 mm 3 mps 665 mmHg 30%
    19:00 +30°C° 0 mm 3 mps 665 mmHg 33%
    20:00 +29°C° 0 mm 3 mps 665 mmHg 34%
    21:00 +28°C° 0 mm 2 mps 665 mmHg 35%
    22:00 +27°C° 0 mm 2 mps 666 mmHg 37%
    23:00 +27°C° 0 mm 3 mps 666 mmHg 38%

    25 February, Monday

    Time Temperature Precipitation Wind Pressure Humidity
    00:00 +27°C° 0 mm 3 mps 665 mmHg 40%
    01:00 +27°C° 0 mm 3 mps 665 mmHg 41%
    02:00 +27°C° 0 mm 2 mps 665 mmHg 44%
    03:00 +26°C° 0 mm 2 mps 665 mmHg 47%
    04:00 +25°C° 0 mm 1 mps 665 mmHg 49%
    05:00 +25°C° 0 mm 1 mps 665 mmHg 50%
    06:00 +25°C° 0 mm 1 mps 666 mmHg 50%
    07:00 +25°C° 0 mm 1 mps 667 mmHg 51%
    08:00 +28°C° 0 mm 1 mps 667 mmHg 44%
    09:00 +30°C° 0 mm 1 mps 668 mmHg 38%
    10:00 +33°C° 0 mm 1 mps 668 mmHg 32%
    11:00 +35°C° 0 mm 1 mps 668 mmHg 29%
    12:00 +37°C° 0 mm 2 mps 667 mmHg 26%
    13:00 +38°C° 0 mm 2 mps 667 mmHg 23%
    14:00 +36°C° 0 mm 1 mps 666 mmHg 25%
    15:00 +35°C° 0 mm 1 mps 666 mmHg 27%
    16:00 +34°C° 0 mm 1 mps 665 mmHg 28%
    17:00 +33°C° 0 mm 1 mps 665 mmHg 31%
    18:00 +32°C° 0 mm 1 mps 665 mmHg 33%
    19:00 +31°C° 0 mm 1 mps 666 mmHg 35%
    20:00 +29°C° 0.1 mm 1 mps 666 mmHg 39%
    21:00 +28°C° 0.1 mm 1 mps 666 mmHg 44%
    22:00 +27°C° 0.1 mm 1 mps 666 mmHg 48%
    23:00 +26°C° 0 mm 1 mps 666 mmHg 49%
    Show more